Regional Weather Roundup
Issued by NWS Binghamton, NY

Home | Current Version | Previous Version | Text Only | Print | Product List | Glossary On
Versions: 1 2 3 4 5 6 7 8 9 10 11 12 13 14 15 16 17 18 19 20 21 22 23 24 25 26 27
000
ASUS41 KBGM 182010
RWRBGM
RWRBGM
BINGHAMTON REGIONAL WEATHER ROUNDUP
NATIONAL WEATHER SERVICE BINGHAMTON NY
400 PM EDT FRI APR 18 2014

Note: "fair" indicates few or no clouds below 12,000 feet with no
significant weather and/or obstructions to visibility.

* = Station(s) that does not report precipitation, such as rain,
snow, etc, also no thunder or fog.

!NYZ009-015>018-022>025-036-037-044>046-055>057-062-182100
...CENTRAL NEW YORK...

CITY           SKY/WX    TMP DP  RH WIND       PRES   REMARKS
BINGHAMTON     PTSUNNY   51  30  44 S12       30.25F
CORTLAND       FAIR      55  32  41 S9        30.25F
DANSVILLE      MOSUNNY   69  30  23 VRB6      30.16F
ELMIRA         MOSUNNY   61  30  31 SW10G18   30.21F
ITHACA         MOSUNNY   57  33  40 SE12      30.23F
HAMILTON       CLEAR     55  32  41 S13       30.24
MONTICELLO     CLOUDY    45  25  45 S8        30.33F
NORWICH        SUNNY     52  30  43 S12       30.26F
ONEONTA        SUNNY     48  25  40 CALM      30.26
PENN YAN       MOSUNNY   62  33  33 S10       30.19F
ROME           PTSUNNY   56  30  37 SE12      30.25F
SIDNEY         SUNNY     55  32  41 S6        30.27F
SYRACUSE       PTSUNNY   60  32  34 S9        30.21F
$$

!PAZ038>040-043-044-047-048-072-182100
...NORTHEAST PENNSYLVANIA...

CITY           SKY/WX    TMP DP  RH WIND       PRES   REMARKS
SCRANTON       CLOUDY    53  28  38 SW12G18   30.29F
TOWANDA*       CLEAR     55  27  33 S5        30.27F
$$
&&
KEY
WCI = WIND CHILL INDEX
VSB = VISIBILITY
HX  = HEAT INDEX
$$



USA.gov is the U.S. government's official web portal to all federal, state and local government web resources and services.